Regional Weather Roundup
Issued by NWS

Home | Current Version | Previous Version | Graphics & Text | Print | Product List | Glossary On
Versions: 1 2 3 4 5 6 7 8 9 10 11 12 13 14 15 16 17 18 19 20 21 22 23 24 25 26 27 28 29 30 31 32 33 34 35 36 37 38 39 40 41 42 43 44 45 46 47 48 49 50
000
ASUS43 KMPX 041810
RWRMN
WEATHER ROUNDUP FOR MINNESOTA
NATIONAL WEATHER SERVICE TWIN CITIES/CHANHASSEN MN
100 PM CDT FRI SEP 04 2015


NOTE: "FAIR" INDICATES FEW OR NO CLOUDS BELOW 12,000 FEET WITH NO
SIGNIFICANT WEATHER AND/OR OBSTRUCTIONS TO VISIBILITY. N/A MEANS
CURRENT SKY AND/OR WEATHER CONDITIONS ARE NOT AVAILABLE.

MNZ060>063-068>070-041900-
   Twin Cities Metro

CITY           SKY/WX    TMP DP  RH WIND       PRES   REMARKS
TWIN CITIES    MOSUNNY   85  72  65 E10       29.92S HX  91
6HR MIN TEMP:  71; 6HR MAX TEMP:  85;

ST PAUL        MOSUNNY   83  73  72 SE14      29.92F
CRYSTAL        SUNNY     86  71  60 SE12      29.91R HX  91
BLAINE         MOSUNNY   84  72  65 SE14G20   29.92S
LAKEVILLE      SUNNY     84  73  70 SE7       29.92S HX  91
EDEN PRAIRIE   SUNNY     87  74  64 SE10      29.91S HX  95
6HR MIN TEMP:  72; 6HR MAX TEMP:  87;

SOUTH ST PAUL  SUNNY     84  70  64 SE8       29.92F
LAKE ELMO      FAIR      82  72  69 SE8       29.95F
$$
MNZ001>005-007-008-013>017-022>024-027-028-041900-
   Northwest Minnesota

CITY           SKY/WX    TMP DP  RH WIND       PRES   REMARKS
BEMIDJI        MOSUNNY   79  69  70 SE13G21   29.87F
HALLOCK        CLOUDY    75  72  88 SE13      29.78R
ROSEAU         MOSUNNY   79  72  78 E10G16    29.82F
WARROAD        SUNNY     75  72  88 NE9       29.84F
THIEF RVR FALL CLOUDY    81  72  74 S14       29.82S
CROOKSTON      CLOUDY    81  72  74 S14       29.80S
FOSSTON        PTSUNNY   79  66  65 S16       29.86R
DETROIT LAKES  CLOUDY    81  70  69 S13       29.88S
MOORHEAD       CLOUDY    82  68  61 S13       29.84R
PARK RAPIDS    CLOUDY    80  68  66 S13       29.91R
MAHNOMEN       MOCLDY    79  71  74 SE13      29.85S
$$
MNZ006-009>011-018-025>026-041900-
   North Central Minnesota

CITY           SKY/WX    TMP DP  RH WIND       PRES   REMARKS
BAUDETTE       SUNNY     82  70  66 SE12G24   29.86F
FLAG ISLAND    CLOUDY    75  66  73 E5        29.85F
INTL FALLS     MOSUNNY   82  68  62 S8G18     29.92F
6HR MIN TEMP:  58; 6HR MAX TEMP:  82;

WASKISH        SUNNY     81  72  74 E13G21    29.87F
BIG FORK       MOSUNNY   81  70  69 SE10      29.93F
LONGVILLE      MOSUNNY   82  72  69 E7        29.90F
GRAND RAPIDS     N/A     81  68  65 SE13      29.94F
CRANE LAKE     MOSUNNY   81  63  54 SE3       29.98S
ORR            SUNNY     82  64  54 SE12G17   29.94S
COOK           SUNNY     81  66  61 SE15G22   29.97F
WALKER         FAIR      79  70  72 SE9       29.89S
$$
MNZ012-019>021-037-041900-
   Northeast Minnesota

CITY           SKY/WX    TMP DP  RH WIND       PRES   REMARKS
DULUTH         MOSUNNY   74  64  71 SE13      30.01R
6HR MIN TEMP:  60; 6HR MAX TEMP:  74;

ELY            MOSUNNY   79  57  47 S12G18    30.00F
HIBBING        SUNNY     81  69  67 SE17      29.97F
EVELETH        SUNNY     79  66  65 SE10      29.99F
DULUTH HARBOR  SUNNY     64  61  88 E12       30.01S
TWO HARBORS    MOSUNNY   75  66  73 E12       30.01R
SILVER BAY     MOSUNNY   73  63  68 NE10      30.02S
GRAND MARAIS     N/A     66  56  70 NE6       30.05F
G MARAIS ARPRT SUNNY     73  59  60 SE12G17   30.11S
$$
MNZ029>031-032-039>041-046>048-054>057-064-041900-
   West Central Minnesota

CITY           SKY/WX    TMP DP  RH WIND       PRES   REMARKS
FERGUS FALLS   CLOUDY    77  70  78 CALM      29.83F
WHEATON        CLOUDY    72  70  94 E7        29.83F
MORRIS         CLOUDY    79  72  78 SE3       29.85F
ALEXANDRIA     CLOUDY    82  70  66 S8        29.90F
ELBOW LAKE     FAIR      76  71  83 SE3       29.85F HAZE
WADENA         PTSUNNY   81  72  74 SE8       29.89F
GLENWOOD       PTSUNNY   84  72  65 S7        29.90F
APPLETON       CLOUDY    82  70  65 E5        29.84F
BENSON         HAZE      82  68  61 W5        29.87F VSB 1
ORTONVILLE     CLOUDY    77  72  83 SE2       29.84F
MADISON        CLOUDY   N/A N/A N/A SE5       29.84F
WILLMAR        FAIR      86  72  62 SW3       29.89F HX  92
$$
MNZ033>034-036-042>043-049>051-058-059-041900-
   Central Minnesota

CITY           SKY/WX    TMP DP  RH WIND       PRES   REMARKS
ST CLOUD       MOSUNNY   83  72  69 SE10      29.91R
6HR MIN TEMP:  69; 6HR MAX TEMP:  84;

SAUK CENTRE    MOCLDY    83  72  69 S8        29.90F
PAYNESVILLE    MOSUNNY   85  70  61 E9        29.91S HX  90
AITKIN         SUNNY     82  72  69 SE10      29.92S
PINE RIVER     MOSUNNY   81  70  69 SE14G20   29.94S
BRAINERD       MOSUNNY   81  70  69 SE10      29.92R
STAPLES        PTSUNNY   81  70  69 S10       29.91R
LONG PRAIRIE   PTSUNNY   82  72  69 SE12      29.91F
LITTLE FALLS   PTSUNNY   82  70  65 SE12      29.92R
LITCHFIELD     MOSUNNY   88  75  66 SE7       29.90S HX  97
BUFFALO        SUNNY     83  71  66 SE7       29.93R
MAPLE LAKE     SUNNY     84  75  75 SE5       29.92S HX  91
$$
MNZ037-044-045-052-053-041900-
   East Central Minnesota

CITY           SKY/WX    TMP DP  RH WIND       PRES   REMARKS
PRINCETON      SUNNY     82  72  69 SE9       29.93R
MORA           SUNNY     79  68  69 SE7       29.96R
CAMBRIDGE      SUNNY     84  70  61 SE7       29.92R
RUSH CITY      SUNNY     83  70  65 SE8       29.94S
MOOSE LAKE     SUNNY     82  70  65 SE6       29.94F
HINCKLEY       FAIR      82  72  69 SE9       29.95S
CLOQUET        SUNNY     73  63  68 E13G18    29.99S
MCGREGOR       MOSUNNY   82  72  69 SE14      29.95S
$$
MNZ071>073-080-081-089-090-097-098-041900-
   Southwest Minnesota

CITY           SKY/WX    TMP DP  RH WIND       PRES   REMARKS
MONTEVIDEO     CLOUDY    90  77  66 W3        29.88F HX 102
GRANITE FALLS  PTSUNNY   83  71  65 SE5       29.88F
CANBY          PTSUNNY   82  70  66 E3        29.86F
MARSHALL       PTSUNNY   86  68  54 S5        29.89R
REDWOOD FALLS  PTSUNNY   86  69  56 S10       29.88F HX  90
OLIVIA         PTSUNNY   86  70  58 SW3       29.88F HX  90
PIPESTONE      CLOUDY    79  68  69 S6        29.91R THUNDER
WINDOM         PTSUNNY   84  70  61 SE5       29.92S
WORTHINGTON    PTSUNNY   79  68  69 S15       29.92S
JACKSON        PTSUNNY   84  72  65 S10       29.94R
TRACY          PTSUNNY   81  71  71 S10       29.90R
SLAYTON        PTSUNNY   79  68  69 CALM      29.93R
$$
MNZ065>067-074>077-082>085-091>093-041900-
   South Central Minnesota

CITY           SKY/WX    TMP DP  RH WIND       PRES   REMARKS
MANKATO        SUNNY     86  73  66 SE13      29.90S HX  93
NEW ULM        MOSUNNY   84  72  65 SW6       29.91R
ST JAMES       MOSUNNY   86  73  66 S9        29.92R HX  93
FAIRMONT       MOSUNNY   84  70  61 S8        29.92R
GLENCOE        SUNNY     89  74  62 SE6       29.90S HX  98
FARIBAULT      SUNNY     84  73  70 SE10      29.93F HX  91
OWATONNA       SUNNY     86  72  62 SE12      29.93F HX  92
WASECA         SUNNY     82  72  69 SE8       29.93F
ALBERT LEA     MOSUNNY   86  72  62 SE14      29.93F HX  92
$$
MNZ078>079-086>088-094>096-041900-
   Southeast Minnesota

CITY           SKY/WX    TMP DP  RH WIND       PRES   REMARKS
ROCHESTER      SUNNY     85  73  67 SE12      29.98S HX  91
6HR MIN TEMP:  70; 6HR MAX TEMP:  85;

RED WING       SUNNY     84  70  61 SE13      29.93F
STANTON        SUNNY     86  73  64 SE8       29.92S HX  92
DODGE CENTER   SUNNY     82  72  69 SE8       29.96S
WINONA         SUNNY     86  72  62 E10       29.97S HAZE    HX  92
AUSTIN         SUNNY     84  73  70 SE9       29.95S HX  91
PRESTON        MOSUNNY   83  70  63 SE8       29.99S
$$
ABBREVIATIONS USED IN REMARKS
   TC - TEMPERATURES IN CELSIUS
  WCI - WIND CHILL INDEX
   HX - HEAT INDEX
  VSB - VISIBILITY
$$


USA.gov is the U.S. government's official web portal to all federal, state and local government web resources and services.